EW3017 Weather Reports


time (UTC)temp
C
wind
direction
speed
KPH
gust
KPH
rain 1hr
cm
rain 24hr
cm
rain mn
cm
humidity
%
barometer
mb
20260504215012 23 196 4.8 20.9 0.00 0.00 0.00 38 1007.5
20260504214531 23 0 1.6 17.7 0.00 0.00 0.00 39 1007.5
20260504214016 23 207 1.6 17.7 0.00 0.00 0.00 38 1007.5
20260504213514 23 0 0.0 14.5 0.00 0.00 0.00 40 1007.6
20260504213030 23 0 1.6 14.5 0.00 0.00 0.00 40 1007.5
20260504212514 23 0 0.0 8.0 0.00 0.00 0.00 38 1007.5
20260504212015 23 227 1.6 29.0 0.00 0.00 0.00 38 1007.6
20260504211531 23 0 0.0 29.0 0.00 0.00 0.00 39 1007.6
20260504211014 23 252 6.4 29.0 0.00 0.00 0.00 37 1007.5
20260504210514 23 227 1.6 19.3 0.00 0.00 0.00 37 1007.6
20260504210051 23 0 3.2 12.9 0.00 0.00 0.00 39 1007.4
20260504205515 23 192 1.6 17.7 0.00 0.00 0.00 40 1007.6
20260504205014 23 194 1.6 24.1 0.00 0.00 0.00 39 1007.6
20260504204534 23 0 1.6 24.1 0.00 0.00 0.00 38 1007.6
20260504204014 23 0 1.6 19.3 0.00 0.00 0.00 39 1007.7
20260504203515 23 185 3.2 25.7 0.00 0.00 0.00 39 1007.8
20260504203035 23 189 1.6 25.7 0.00 0.00 0.00 39 1007.9
20260504202515 23 0 0.0 20.9 0.00 0.00 0.00 40 1007.9
20260504202016 23 0 0.0 19.3 0.00 0.00 0.00 40 1008.0
20260504201531 23 217 1.6 24.1 0.00 0.00 0.00 39 1008.1
20260504201012 23 315 6.4 24.1 0.00 0.00 0.00 38 1008.2
20260504200514 23 0 1.6 19.3 0.00 0.00 0.00 40 1008.2
20260504200032 23 223 1.6 19.3 0.00 0.00 0.00 41 1008.3
20260504195512 23 212 3.2 24.1 0.00 0.00 0.00 39 1008.5
20260504195012 23 227 3.2 29.0 0.00 0.00 0.00 41 1008.5
20260504194542 23 223 1.6 29.0 0.00 0.00 0.00 39 1008.5
20260504194012 23 233 0.0 12.9 0.00 0.00 0.00 41 1008.7
20260504193512 23 211 0.0 12.9 0.00 0.00 0.00 43 1008.9
20260504193030 23 194 0.0 20.9 0.00 0.00 0.00 42 1008.9
20260504192511 23 0 1.6 20.9 0.00 0.00 0.00 41 1009.0
20260504192011 23 0 6.4 20.9 0.00 0.00 0.00 40 1009.1
20260504191541 23 270 0.0 14.5 0.00 0.00 0.00 42 1009.1
20260504191013 23 0 0.0 14.5 0.00 0.00 0.00 40 1009.1
20260504190513 23 0 3.2 16.1 0.00 0.00 0.00 42 1009.3
20260504190040 23 0 1.6 16.1 0.00 0.00 0.00 44 1009.3
20260504185516 22 0 0.0 11.3 0.00 0.00 0.00 41 1009.3
20260504185010 23 0 1.6 17.7 0.00 0.00 0.00 43 1009.5
20260504184537 23 219 1.6 17.7 0.00 0.00 0.00 42 1009.6
20260504184014 22 0 0.0 16.1 0.00 0.00 0.00 43 1009.6
20260504183513 22 205 0.0 16.1 0.00 0.00 0.00 42 1009.7
20260504183031 22 217 1.6 16.1 0.00 0.00 0.00 43 1009.7
20260504182514 22 0 0.0 12.9 0.00 0.00 0.00 45 1009.7
20260504182012 22 166 0.0 16.1 0.00 0.00 0.00 43 1009.8
20260504181530 22 0 0.0 17.7 0.00 0.00 0.00 47 1009.9
20260504181017 22 215 4.8 17.7 0.00 0.00 0.00 44 1009.9
20260504180512 22 245 3.2 17.7 0.00 0.00 0.00 42 1010.1
20260504180033 22 0 0.0 19.3 0.00 0.00 0.00 44 1010.1
20260504175510 22 0 1.6 19.3 0.00 0.00 0.00 44 1010.2
20260504175012 22 0 1.6 22.5 0.00 0.00 0.00 43 1010.2
20260504174530 22 254 3.2 22.5 0.00 0.00 0.00 44 1010.3
20260504174014 21 0 0.0 20.9 0.00 0.00 0.00 44 1010.2
20260504173513 21 0 4.8 20.9 0.00 0.00 0.00 43 1010.4
20260504173035 21 223 3.2 27.4 0.00 0.00 0.00 44 1010.4
20260504172512 21 213 3.2 27.4 0.00 0.00 0.00 44 1010.6
20260504172011 20 313 11.3 25.7 0.00 0.00 0.00 44 1010.6
20260504171532 21 0 8.0 25.7 0.00 0.00 0.00 42 1010.6
20260504171017 21 310 1.6 17.7 0.00 0.00 0.00 44 1010.7
20260504170516 21 216 3.2 17.7 0.00 0.00 0.00 44 1010.7
20260504151015 17 229 4.8 19.3 0.00 0.00 0.00 46 1012.4
20260504150516 17 0 3.2 19.3 0.00 0.00 0.00 45 1012.5
20260504141015 16 207 0.0 12.9 0.00 0.00 0.00 48 1012.8
20260504140514 16 210 0.0 14.5 0.00 0.00 0.00 51 1012.7
20260504130516 12 0 0.0 8.0 0.00 0.00 0.00 54 1013.4
20260504110513 6 0 0.0 0.0 0.00 0.00 0.00 76 1013.4
20260504100512 5 0 0.0 0.0 0.00 0.00 0.00 71 1013.7
20260504081531 6 0 0.0 0.0 0.00 0.00 0.00 66 1013.9
20260504081012 6 0 0.0 0.0 0.00 0.00 0.00 65 1013.9
20260504080513 6 0 0.0 0.0 0.00 0.00 0.00 65 1014.0
20260504050516 7 0 0.0 0.0 0.00 0.00 0.00 61 1014.0
20260504045515 8 0 0.0 0.0 0.00 0.00 0.00 59 1014.0
20260504045015 7 0 0.0 0.0 0.00 0.00 0.00 59 1014.0
20260504044532 8 0 0.0 0.0 0.00 0.00 0.00 61 1014.0
20260504044015 8 0 0.0 0.0 0.00 0.00 0.00 58 1014.0
20260504043519 8 0 0.0 0.0 0.00 0.00 0.00 57 1014.0
20260504043031 8 0 0.0 0.0 0.00 0.00 0.00 57 1014.1
20260504042514 8 0 0.0 0.0 0.00 0.00 0.00 58 1014.1
20260504042044 8 0 0.0 0.0 0.00 0.00 0.00 57 1014.0
20260504041534 8 0 0.0 0.0 0.00 0.00 0.00 57 1014.1
20260504041013 8 0 0.0 0.0 0.00 0.00 0.00 58 1014.1
20260504040513 8 0 0.0 0.0 0.00 0.00 0.00 57 1014.0
20260504040033 8 0 0.0 0.0 0.00 0.00 0.00 55 1014.1
20260504035514 8 0 0.0 0.0 0.00 0.00 0.00 55 1014.1
20260504035013 9 0 0.0 0.0 0.00 0.00 0.00 56 1014.0
20260504034542 9 0 0.0 0.0 0.00 0.00 0.00 55 1014.0
20260504034012 8 0 0.0 0.0 0.00 0.00 0.00 55 1013.9
20260504033516 8 0 0.0 0.0 0.00 0.00 0.00 56 1013.8
20260504033033 8 0 0.0 0.0 0.00 0.00 0.00 56 1013.8
20260504032513 8 0 0.0 0.0 0.00 0.00 0.00 56 1013.8
20260504032015 8 0 0.0 0.0 0.00 0.00 0.00 57 1013.9
20260504031530 8 0 0.0 0.0 0.00 0.00 0.00 58 1013.9
20260504031012 8 0 0.0 0.0 0.00 0.00 0.00 58 1013.8
20260504030512 9 0 0.0 0.0 0.00 0.00 0.00 56 1013.8
20260504030038 10 0 0.0 0.0 0.00 0.00 0.00 53 1013.8
20260504025512 10 0 0.0 0.0 0.00 0.00 0.00 54 1013.8
20260504025013 10 0 0.0 0.0 0.00 0.00 0.00 54 1013.8
20260504024530 10 0 0.0 0.0 0.00 0.00 0.00 52 1013.8
20260504024017 10 0 0.0 0.0 0.00 0.00 0.00 52 1013.8
20260504023514 10 0 0.0 0.0 0.00 0.00 0.00 52 1013.8
20260504023030 10 0 0.0 0.0 0.00 0.00 0.00 53 1013.8
20260504022513 10 0 0.0 0.0 0.00 0.00 0.00 53 1013.8
20260504022011 10 0 0.0 0.0 0.00 0.00 0.00 52 1013.8
20260504021532 10 0 0.0 0.0 0.00 0.00 0.00 52 1013.8
20260504021013 10 0 0.0 0.0 0.00 0.00 0.00 52 1013.8
20260504020512 10 0 0.0 0.0 0.00 0.00 0.00 52 1013.8
20260504020038 10 0 0.0 0.0 0.00 0.00 0.00 53 1013.9
20260504015514 10 0 0.0 0.0 0.00 0.00 0.00 52 1013.8
20260504015017 10 0 0.0 0.0 0.00 0.00 0.00 50 1013.9
20260504014532 11 0 0.0 0.0 0.00 0.00 0.00 49 1013.8
20260504014014 11 0 0.0 0.0 0.00 0.00 0.00 49 1013.9
20260504013512 11 0 0.0 0.0 0.00 0.00 0.00 48 1013.8
20260504013029 11 0 0.0 0.0 0.00 0.00 0.00 48 1013.8
20260504012512 11 0 0.0 0.0 0.00 0.00 0.00 48 1013.7
20260504012012 11 0 0.0 0.0 0.00 0.00 0.00 47 1013.7
20260504011531 11 0 0.0 0.0 0.00 0.00 0.00 47 1013.6
20260504011011 11 0 0.0 0.0 0.00 0.00 0.00 46 1013.6
20260504010513 11 0 0.0 0.0 0.00 0.00 0.00 46 1013.5
20260504010030 11 0 0.0 0.0 0.00 0.00 0.00 46 1013.5
20260504005513 12 0 0.0 0.0 0.00 0.00 0.00 45 1013.5
20260504005013 12 0 0.0 0.0 0.00 0.00 0.00 45 1013.5
20260504004531 12 0 0.0 0.0 0.00 0.00 0.00 45 1013.5
20260504004015 12 0 0.0 0.0 0.00 0.00 0.00 44 1013.4
20260504003511 12 0 0.0 0.0 0.00 0.00 0.00 44 1013.4
20260504003030 12 0 0.0 0.0 0.00 0.00 0.00 43 1013.4
20260504002512 12 0 0.0 0.0 0.00 0.00 0.00 43 1013.3
20260504002013 12 0 0.0 0.0 0.00 0.00 0.00 43 1013.3
20260504001533 13 0 0.0 0.0 0.00 0.00 0.00 43 1013.2
20260504001013 13 0 0.0 0.0 0.00 0.00 0.00 42 1013.2
20260504000513 13 0 0.0 12.9 0.00 0.00 0.00 42 1013.0
20260504000033 13 0 0.0 12.9 0.00 0.00 0.00 42 1012.9
20260503235513 13 0 3.2 16.1 0.00 0.00 0.00 40 1012.8
20260503235010 13 0 1.6 16.1 0.00 0.00 0.00 41 1012.8
20260503234534 13 0 0.0 17.7 0.00 0.00 0.00 40 1012.8
20260503234013 14 300 4.8 17.7 0.00 0.00 0.00 40 1012.7
20260503233511 14 0 4.8 17.7 0.00 0.00 0.00 39 1012.7
20260503233033 14 0 4.8 19.3 0.00 0.00 0.00 39 1012.7
20260503232511 14 302 9.7 19.3 0.00 0.00 0.00 39 1012.7
20260503232012 14 328 11.3 25.7 0.00 0.00 0.00 39 1012.6
20260503231544 14 316 12.9 25.7 0.00 0.00 0.00 39 1012.6
20260503231013 14 314 16.1 25.7 0.00 0.00 0.00 38 1012.7
20260503230514 14 300 12.9 20.9 0.00 0.00 0.00 39 1012.6
20260503230030 14 297 12.9 20.9 0.00 0.00 0.00 39 1012.5
20260503225512 14 0 4.8 20.9 0.00 0.00 0.00 40 1012.5
20260503225013 14 318 9.7 20.9 0.00 0.00 0.00 39 1012.6
20260503224531 14 319 11.3 22.5 0.00 0.00 0.00 39 1012.5
20260503224014 14 308 14.5 25.7 0.00 0.00 0.00 39 1012.5
20260503223513 14 331 14.5 25.7 0.00 0.00 0.00 39 1012.5
20260503223030 14 324 16.1 25.7 0.00 0.00 0.00 38 1012.5
20260503222513 14 306 11.3 22.5 0.00 0.00 0.00 39 1012.6
20260503222012 14 0 11.3 20.9 0.00 0.00 0.00 39 1012.6
20260503221535 14 345 14.5 20.9 0.00 0.00 0.00 39 1012.6
20260503221012 15 306 9.7 19.3 0.00 0.00 0.00 39 1012.5
20260503220513 15 0 3.2 20.9 0.00 0.00 0.00 40 1012.6
20260503220037 15 0 11.3 20.9 0.00 0.00 0.00 38 1012.6
20260503215515 15 297 12.9 32.2 0.00 0.00 0.00 38 1012.6